Stündliche Wetter Aboyne

Heute, 22 Juni, Dienstag

Zeit Temperatur Niederschläge Wind Luftdruck Luftfeuchtigkeit
00:00 +4°C° 0 mm 2 m/S 742 mmHg 91%
01:00 +4°C° 0 mm 2 m/S 742 mmHg 91%
02:00 +4°C° 0 mm 1 m/S 742 mmHg 91%
03:00 +4°C° 0 mm 1 m/S 741 mmHg 92%
04:00 +5°C° 0 mm 1 m/S 742 mmHg 86%
05:00 +7°C° 0 mm 1 m/S 742 mmHg 80%
06:00 +7°C° 0 mm 0 m/S 742 mmHg 73%
07:00 +10°C° 0 mm 1 m/S 742 mmHg 66%
08:00 +12°C° 0 mm 1 m/S 742 mmHg 58%
09:00 +14°C° 0 mm 1 m/S 742 mmHg 50%
10:00 +15°C° 0 mm 1 m/S 741 mmHg 49%
11:00 +16°C° 0 mm 2 m/S 741 mmHg 47%
12:00 +17°C° 0 mm 2 m/S 741 mmHg 45%
13:00 +17°C° 0 mm 2 m/S 741 mmHg 46%
14:00 +17°C° 0 mm 3 m/S 741 mmHg 48%
15:00 +17°C° 0 mm 4 m/S 740 mmHg 49%
16:00 +16°C° 0 mm 3 m/S 740 mmHg 56%
17:00 +14°C° 0 mm 3 m/S 740 mmHg 63%
18:00 +14°C° 0 mm 2 m/S 740 mmHg 70%
19:00 +13°C° 0 mm 2 m/S 741 mmHg 74%
20:00 +12°C° 0 mm 1 m/S 741 mmHg 78%
21:00 +11°C° 0 mm 1 m/S 741 mmHg 81%
22:00 +11°C° 0 mm 1 m/S 741 mmHg 81%
23:00 +11°C° 0 mm 1 m/S 740 mmHg 81%

Morgen, 23 Juni, Mittwoch

Zeit Temperatur Niederschläge Wind Luftdruck Luftfeuchtigkeit
00:00 +11°C° 0 mm 1 m/S 740 mmHg 80%
01:00 +11°C° 0 mm 1 m/S 740 mmHg 81%
02:00 +11°C° 0 mm 1 m/S 740 mmHg 81%
03:00 +10°C° 0 mm 1 m/S 740 mmHg 82%
04:00 +11°C° 0 mm 1 m/S 740 mmHg 80%
05:00 +11°C° 0 mm 0 m/S 740 mmHg 77%
06:00 +12°C° 0 mm 0 m/S 741 mmHg 75%
07:00 +13°C° 0 mm 0 m/S 741 mmHg 75%
08:00 +13°C° 0 mm 0 m/S 741 mmHg 75%
09:00 +15°C° 0 mm 1 m/S 741 mmHg 75%
10:00 +16°C° 0 mm 1 m/S 741 mmHg 74%
11:00 +18°C° 0 mm 1 m/S 741 mmHg 72%
12:00 +19°C° 0 mm 1 m/S 741 mmHg 71%
13:00 +19°C° 0 mm 1 m/S 741 mmHg 70%
14:00 +20°C° 0 mm 1 m/S 741 mmHg 69%
15:00 +21°C° 0 mm 1 m/S 741 mmHg 69%
16:00 +20°C° 0.1 mm 1 m/S 741 mmHg 75%
17:00 +19°C° 0.1 mm 1 m/S 741 mmHg 81%
18:00 +16°C° 0.1 mm 1 m/S 741 mmHg 87%
19:00 +16°C° 0 mm 1 m/S 741 mmHg 88%
20:00 +15°C° 0 mm 1 m/S 742 mmHg 90%
21:00 +15°C° 0 mm 1 m/S 742 mmHg 91%
22:00 +14°C° 0 mm 1 m/S 742 mmHg 92%
23:00 +14°C° 0 mm 1 m/S 741 mmHg 93%

übermorgen, 24 Juni, Donnerstag

Zeit Temperatur Niederschläge Wind Luftdruck Luftfeuchtigkeit
00:00 +14°C° 0 mm 1 m/S 741 mmHg 94%
01:00 +14°C° 0 mm 1 m/S 741 mmHg 94%
02:00 +14°C° 0 mm 1 m/S 741 mmHg 94%
03:00 +14°C° 0 mm 1 m/S 740 mmHg 94%
04:00 +14°C° 0 mm 1 m/S 740 mmHg 92%
05:00 +15°C° 0 mm 1 m/S 740 mmHg 90%
06:00 +16°C° 0 mm 1 m/S 740 mmHg 88%
07:00 +18°C° 0 mm 1 m/S 740 mmHg 83%
08:00 +19°C° 0 mm 1 m/S 740 mmHg 79%
09:00 +19°C° 0 mm 2 m/S 740 mmHg 74%
10:00 +19°C° 0.2 mm 2 m/S 740 mmHg 71%
11:00 +20°C° 0.2 mm 2 m/S 739 mmHg 69%
12:00 +20°C° 0.2 mm 2 m/S 739 mmHg 67%
13:00 +20°C° 0.2 mm 3 m/S 739 mmHg 66%
14:00 +20°C° 0.2 mm 3 m/S 739 mmHg 65%
15:00 +20°C° 0.2 mm 3 m/S 738 mmHg 65%
16:00 +19°C° 0.2 mm 2 m/S 738 mmHg 70%
17:00 +18°C° 0.2 mm 2 m/S 738 mmHg 74%
18:00 +17°C° 0.2 mm 2 m/S 738 mmHg 79%
19:00 +16°C° 0.1 mm 1 m/S 739 mmHg 83%
20:00 +15°C° 0.1 mm 1 m/S 739 mmHg 86%
21:00 +14°C° 0.1 mm 1 m/S 739 mmHg 90%
22:00 +14°C° 0.5 mm 1 m/S 739 mmHg 92%
23:00 +14°C° 0.5 mm 1 m/S 739 mmHg 95%

25 Juni, Freitag

Zeit Temperatur Niederschläge Wind Luftdruck Luftfeuchtigkeit
00:00 +13°C° 0.5 mm 1 m/S 739 mmHg 98%
01:00 +13°C° 0.2 mm 1 m/S 739 mmHg 98%
02:00 +13°C° 0.2 mm 1 m/S 739 mmHg 98%
03:00 +13°C° 0.2 mm 1 m/S 739 mmHg 98%
04:00 +12°C° 0 mm 0 m/S 739 mmHg 97%
05:00 +12°C° 0 mm 0 m/S 739 mmHg 96%
06:00 +12°C° 0 mm 0 m/S 739 mmHg 96%
07:00 +13°C° 0 mm 0 m/S 739 mmHg 94%
08:00 +14°C° 0 mm 1 m/S 740 mmHg 92%
09:00 +15°C° 0 mm 1 m/S 740 mmHg 90%
10:00 +15°C° 0.1 mm 1 m/S 740 mmHg 88%
11:00 +16°C° 0.1 mm 1 m/S 740 mmHg 87%
12:00 +16°C° 0.1 mm 2 m/S 740 mmHg 86%
13:00 +16°C° 0.2 mm 2 m/S 740 mmHg 85%
14:00 +17°C° 0.2 mm 2 m/S 741 mmHg 84%
15:00 +17°C° 0.2 mm 2 m/S 741 mmHg 83%
16:00 +17°C° 0.2 mm 2 m/S 741 mmHg 84%
17:00 +17°C° 0.2 mm 2 m/S 741 mmHg 84%
18:00 +17°C° 0.2 mm 2 m/S 741 mmHg 85%
19:00 +16°C° 0 mm 1 m/S 741 mmHg 88%
20:00 +15°C° 0 mm 1 m/S 742 mmHg 92%
21:00 +14°C° 0 mm 1 m/S 742 mmHg 95%
22:00 +13°C° 0 mm 1 m/S 742 mmHg 95%
23:00 +13°C° 0 mm 1 m/S 742 mmHg 95%

26 Juni, Samstag

Zeit Temperatur Niederschläge Wind Luftdruck Luftfeuchtigkeit
00:00 +12°C° 0 mm 0 m/S 742 mmHg 96%
01:00 +11°C° 0 mm 0 m/S 742 mmHg 96%
02:00 +11°C° 0 mm 0 m/S 742 mmHg 96%
03:00 +10°C° 0 mm 0 m/S 742 mmHg 96%
04:00 +11°C° 0 mm 0 m/S 742 mmHg 94%
05:00 +12°C° 0 mm 0 m/S 742 mmHg 93%
06:00 +13°C° 0 mm 0 m/S 742 mmHg 92%
07:00 +15°C° 0 mm 1 m/S 742 mmHg 89%
08:00 +15°C° 0 mm 1 m/S 742 mmHg 86%
09:00 +16°C° 0 mm 1 m/S 742 mmHg 83%
10:00 +18°C° 0 mm 1 m/S 742 mmHg 82%
11:00 +17°C° 0 mm 2 m/S 742 mmHg 80%
12:00 +18°C° 0 mm 2 m/S 742 mmHg 79%
13:00 +18°C° 0.1 mm 2 m/S 742 mmHg 76%
14:00 +19°C° 0.1 mm 3 m/S 742 mmHg 73%
15:00 +20°C° 0.1 mm 3 m/S 742 mmHg 70%
16:00 +19°C° 0.1 mm 3 m/S 741 mmHg 73%
17:00 +18°C° 0.1 mm 3 m/S 741 mmHg 77%
18:00 +17°C° 0.1 mm 3 m/S 741 mmHg 80%
19:00 +16°C° 0 mm 3 m/S 741 mmHg 85%
20:00 +15°C° 0 mm 2 m/S 741 mmHg 91%
21:00 +13°C° 0 mm 1 m/S 741 mmHg 96%
22:00 +13°C° 0 mm 1 m/S 741 mmHg 96%
23:00 +13°C° 0 mm 1 m/S 740 mmHg 97%

27 Juni, Sonntag

Zeit Temperatur Niederschläge Wind Luftdruck Luftfeuchtigkeit
00:00 +13°C° 0 mm 1 m/S 740 mmHg 97%
01:00 +12°C° 0 mm 1 m/S 740 mmHg 97%
02:00 +12°C° 0 mm 1 m/S 740 mmHg 98%
03:00 +12°C° 0 mm 1 m/S 739 mmHg 98%
04:00 +13°C° 0 mm 1 m/S 739 mmHg 97%
05:00 +13°C° 0 mm 1 m/S 739 mmHg 95%
06:00 +14°C° 0 mm 1 m/S 739 mmHg 94%
07:00 +15°C° 0 mm 2 m/S 739 mmHg 91%
08:00 +15°C° 0 mm 2 m/S 738 mmHg 88%
09:00 +16°C° 0 mm 3 m/S 738 mmHg 84%
10:00 +16°C° 0 mm 3 m/S 738 mmHg 84%
11:00 +16°C° 0 mm 3 m/S 738 mmHg 84%
12:00 +16°C° 0 mm 3 m/S 738 mmHg 84%
13:00 +15°C° 0 mm 4 m/S 738 mmHg 80%
14:00 +17°C° 0 mm 4 m/S 737 mmHg 77%
15:00 +16°C° 0 mm 5 m/S 737 mmHg 74%
16:00 +17°C° 0 mm 4 m/S 737 mmHg 77%
17:00 +16°C° 0 mm 3 m/S 737 mmHg 81%
18:00 +14°C° 0 mm 3 m/S 737 mmHg 84%
19:00 +13°C° 0.2 mm 3 m/S 736 mmHg 88%
20:00 +14°C° 0.2 mm 2 m/S 736 mmHg 92%
21:00 +13°C° 0.2 mm 2 m/S 736 mmHg 96%
22:00 +13°C° 1.1 mm 2 m/S 735 mmHg 96%
23:00 +13°C° 1.1 mm 2 m/S 735 mmHg 97%
Mehr zeigen

Wir brauchen deine Erlaubnis

Meteoprog und unser Service Anbieter werden persönliche Daten aufbewahren, so wie Cookies, Geräte Bezeichnung oder ähnliche Technologien von deinem Gerät und Prozess, so wie Persönliche Daten Inhalte und Werbungen, genauso wie social Media und den Verkehr zu analysieren.

  • Aufbewahrung und/oder Zugang zu deiner Geräte Informationen.

    Cookies, Geräte Bezeichnung oder andere Informationen, können aufbewahrt oder Zugang zu deinem Gerät erhalten, für den Grund, der oben angegeben wird.

  • Personalisierte Werbung und Inhalte, Messungen, Einblick in das Publikum und Produkt Entwicklung.

    Werbungen und Inhalte können personalisiert werden, basierend auf ein Profil. Mehr Daten können besser personalisierte Werbungen und Inhalte hinzufügen. Werbung und Inhalte können gezeigt und gemessen werden. Einblicke über das Publikum, welche die Werbung gesehen haben und den Inhalt, können abgeleitet werden. So wie Daten können genutzt werden, um es zu verbessern oder die Benutzer Erfahrung zu verbessern das System und die Software.

Wenn du “Ich stimme zu” klickst, erlaubst du uns, die Cookies zu benutzen die Geräte Bezeichnung, den Web oder ähnliche Technologien zu benutzen. Deine Settings, können in deinem Gerät bei deinem Browser geändert werden.

Für den bestimmten Zweck, berechtigten Interessen beruhen darauf, mehr als auf den Inhalt. Du kannst mehr darüber in unseren Privaten und Cookie Politik lesen.